Regional Weather Roundup
Issued by NWS Little Rock, AR

Home | Current Version | Previous Version | Text Only | Print | Product List | Glossary On
Versions: 1 2 3 4 5 6 7 8 9 10 11 12 13 14 15 16 17 18 19 20 21 22 23 24 25 26 27 28 29 30 31 32 33 34 35 36 37 38 39 40 41 42 43 44 45 46 47 48 49 50
837
ASUS44 KLZK 300405
RWRLZK

WEATHER ROUNDUP FOR ARKANSAS
NATIONAL WEATHER SERVICE LITTLE ROCK AR
1100 PM CDT FRI JUL 29 2016

NOTE: "FAIR" INDICATES FEW OR NO CLOUDS BELOW 12,000 FEET WITH NO
SIGNIFICANT WEATHER AND/OR OBSTRUCTIONS TO VISIBILITY.

ARZ001-003-010-029-300500-
NORTHWEST ARKANSAS

CITY           SKY/WX    TMP DP  RH WIND       PRES   REMARKS
FAYETTEVILLE   CLOUDY    72  72 100 S3        30.01R
FORT SMITH     CLOUDY    80  68  66 CALM      29.96R
HARRISON       CLOUDY    72  71  97 CALM      30.01R
BENTONVILLE    CLOUDY    73  66  78 CALM      30.02R
ROGERS         CLOUDY    76  71  85 CALM      30.02R
SILOAM SPGS    CLEAR     73  63  68 N3        30.02R
$$

ARZ004-005-016-300500-
NORTH CENTRAL ARKANSAS

CITY           SKY/WX    TMP DP  RH WIND       PRES   REMARKS
BATESVILLE     CLOUDY    72  70  94 S3        29.99R VSB 1/2
FLIPPIN        CLOUDY    72  70  94 E3        29.96S
MTN HOME       CLOUDY    71  71 100 CALM      29.99R
$$

ARZ040-041-300500-
WEST CENTRAL ARKANSAS

CITY           SKY/WX    TMP DP  RH WIND       PRES   REMARKS
MENA             N/A    N/A N/A N/A MISG        N/A
MOUNT IDA      LGT RAIN  74  73  97 CALM      29.97F
$$

ARZ009-017-025-026-028-300500-
NORTHEAST ARKANSAS

CITY           SKY/WX    TMP DP  RH WIND       PRES   REMARKS
CORNING          N/A     72  72 100 CALM      29.98R
JONESBORO      PTCLDY    73  70  90 CALM      29.96F
NEWPORT        MOCLDY    74  74 100 CALM      29.98R
WALNUT RIDGE   PTCLDY    72  68  88 SW6       29.97R
BLYTHEVILLE    MOCLDY    73  71  93 CALM      29.96S
$$

ARZ022-023-033-042-044-300500-
CENTRAL ARKANSAS

CITY           SKY/WX    TMP DP  RH WIND       PRES   REMARKS
LITTLE ROCK    CLOUDY    77  72  84 SE3       29.99R
N LITTLE ROCK    N/A     74  72  95 CALM      29.97R
JACKSONVILLE   CLOUDY    74  74 100 E1        29.98R
SEARCY         CLOUDY    72  72 100 CALM      30.10R
HOT SPRINGS    RAIN      73  71  93 CALM      30.00R FOG
RUSSELLVILLE   CLOUDY    75  74  96 CALM      29.97S
$$

ARZ036-300500-
EAST ARKANSAS

CITY           SKY/WX    TMP DP  RH WIND       PRES   REMARKS
WEST MEMPHIS   PTCLDY    72  71  97 SW3       29.96R
$$

ARZ050-053-066-070-073-300500-
SOUTHWEST ARKANSAS

CITY           SKY/WX    TMP DP  RH WIND       PRES   REMARKS
ARKADELPHIA    LGT RAIN  72  71  97 VRB3      29.98F
CAMDEN         LGT RAIN  77  68  73 NW8G16    30.00R
TEXARKANA      CLOUDY    74  70  87 N8        30.03R
EL DORADO      PTCLDY    79  77  94 CALM      30.00R
DE QUEEN       CLOUDY    71  70  96 CALM      29.97F
$$

ARZ056-057-069-300500-
SOUTHEAST ARKANSAS

CITY           SKY/WX    TMP DP  RH WIND       PRES   REMARKS
PINE BLUFF     CLEAR     72  71  97 CALM      30.00R
STUTTGART      CLOUDY    75  70  83 S6        29.99R
MONTICELLO     PTCLDY    77  74  90 CALM      29.99R

$$






USA.gov is the U.S. government's official web portal to all federal, state and local government web resources and services.